When you browse on this site, cookies collect data to enhance your experience and personalize the content and advertising you see.
Visit our Privacy Policy to learn more. By continuing to use the site, you agree to this use of cookies and data.
  • In Sweden
  • List of Countries
  • For 7 days
  • Water Temperature
  • Weather Map
  • Weather Widgets
  • user-avatar
    Login

    Hourly Weather Aguililla

    Today, 6 June, Saturday

    Time Temperature Precipitation Wind Pressure Humidity
    00:00 +19°C° 0 mm 0 mps 658 mmHg 87%
    01:00 +19°C° 0 mm 0 mps 658 mmHg 86%
    02:00 +19°C° 0 mm 0 mps 657 mmHg 85%
    03:00 +19°C° 0 mm 0 mps 658 mmHg 87%
    04:00 +18°C° 0 mm 0 mps 658 mmHg 88%
    05:00 +18°C° 0 mm 0 mps 658 mmHg 89%
    06:00 +20°C° 0 mm 0 mps 658 mmHg 79%
    07:00 +23°C° 0 mm 0 mps 659 mmHg 70%
    08:00 +27°C° 0 mm 1 mps 660 mmHg 60%
    09:00 +29°C° 0 mm 1 mps 661 mmHg 54%
    10:00 +31°C° 0 mm 1 mps 661 mmHg 47%
    11:00 +33°C° 0 mm 1 mps 661 mmHg 41%
    12:00 +34°C° 0.2 mm 1 mps 661 mmHg 41%
    13:00 +34°C° 0.2 mm 1 mps 660 mmHg 41%
    14:00 +34°C° 0.2 mm 1 mps 660 mmHg 41%
    15:00 +32°C° 0.3 mm 2 mps 659 mmHg 48%
    16:00 +31°C° 0.3 mm 2 mps 658 mmHg 54%
    17:00 +29°C° 0.3 mm 3 mps 658 mmHg 61%
    18:00 +27°C° 1 mm 2 mps 658 mmHg 70%
    19:00 +25°C° 1 mm 2 mps 658 mmHg 79%
    20:00 +23°C° 1 mm 2 mps 658 mmHg 88%
    21:00 +23°C° 0.5 mm 1 mps 659 mmHg 89%
    22:00 +22°C° 0.5 mm 1 mps 659 mmHg 89%
    23:00 +22°C° 0.5 mm 1 mps 659 mmHg 89%

    Tomorrow, 7 June, Sunday

    Time Temperature Precipitation Wind Pressure Humidity
    00:00 +22°C° 0.1 mm 1 mps 659 mmHg 89%
    01:00 +21°C° 0.1 mm 1 mps 659 mmHg 89%
    02:00 +21°C° 0.1 mm 1 mps 658 mmHg 89%
    03:00 +19°C° 0.1 mm 0 mps 658 mmHg 89%
    04:00 +19°C° 0.1 mm 0 mps 658 mmHg 90%
    05:00 +19°C° 0.1 mm 0 mps 658 mmHg 90%
    06:00 +20°C° 0 mm 0 mps 658 mmHg 86%
    07:00 +20°C° 0 mm 0 mps 659 mmHg 81%
    08:00 +23°C° 0 mm 1 mps 659 mmHg 77%
    09:00 +25°C° 0 mm 1 mps 660 mmHg 70%
    10:00 +27°C° 0 mm 1 mps 660 mmHg 63%
    11:00 +29°C° 0 mm 1 mps 661 mmHg 56%
    12:00 +29°C° 0.1 mm 1 mps 660 mmHg 57%
    13:00 +29°C° 0.1 mm 1 mps 660 mmHg 57%
    14:00 +29°C° 0.1 mm 1 mps 659 mmHg 58%
    15:00 +28°C° 0 mm 1 mps 659 mmHg 59%
    16:00 +28°C° 0 mm 1 mps 659 mmHg 61%
    17:00 +27°C° 0 mm 1 mps 658 mmHg 62%
    18:00 +26°C° 0.1 mm 1 mps 658 mmHg 70%
    19:00 +24°C° 0.1 mm 2 mps 658 mmHg 78%
    20:00 +23°C° 0.1 mm 2 mps 658 mmHg 85%
    21:00 +21°C° 0.2 mm 2 mps 659 mmHg 86%
    22:00 +21°C° 0.2 mm 2 mps 659 mmHg 87%
    23:00 +21°C° 0.2 mm 1 mps 659 mmHg 88%

    Day after tomorrow, 8 June, Monday

    Time Temperature Precipitation Wind Pressure Humidity
    00:00 +21°C° 0 mm 1 mps 659 mmHg 87%
    01:00 +21°C° 0 mm 1 mps 659 mmHg 87%
    02:00 +20°C° 0 mm 1 mps 659 mmHg 87%
    03:00 +20°C° 0 mm 1 mps 659 mmHg 87%
    04:00 +20°C° 0 mm 1 mps 658 mmHg 87%
    05:00 +20°C° 0 mm 1 mps 658 mmHg 86%
    06:00 +22°C° 0 mm 1 mps 659 mmHg 77%
    07:00 +24°C° 0 mm 1 mps 660 mmHg 67%
    08:00 +26°C° 0 mm 1 mps 661 mmHg 58%
    09:00 +28°C° 0 mm 1 mps 661 mmHg 51%
    10:00 +30°C° 0 mm 1 mps 662 mmHg 45%
    11:00 +32°C° 0 mm 1 mps 662 mmHg 39%
    12:00 +32°C° 0 mm 1 mps 662 mmHg 38%
    13:00 +33°C° 0 mm 1 mps 661 mmHg 38%
    14:00 +34°C° 0 mm 2 mps 661 mmHg 37%
    15:00 +32°C° 0.1 mm 2 mps 660 mmHg 43%
    16:00 +30°C° 0.1 mm 2 mps 659 mmHg 49%
    17:00 +28°C° 0.1 mm 2 mps 659 mmHg 55%
    18:00 +26°C° 0.4 mm 2 mps 659 mmHg 65%
    19:00 +24°C° 0.4 mm 2 mps 659 mmHg 74%
    20:00 +21°C° 0.4 mm 2 mps 659 mmHg 84%
    21:00 +21°C° 0.2 mm 1 mps 659 mmHg 84%
    22:00 +21°C° 0.2 mm 1 mps 660 mmHg 85%
    23:00 +21°C° 0.2 mm 1 mps 660 mmHg 85%

    9 June, Tuesday

    Time Temperature Precipitation Wind Pressure Humidity
    00:00 +18°C° 0 mm 0 mps 660 mmHg 85%
    01:00 +18°C° 0 mm 0 mps 659 mmHg 84%
    02:00 +18°C° 0 mm 0 mps 659 mmHg 84%
    03:00 +18°C° 0.1 mm 0 mps 659 mmHg 85%
    04:00 +17°C° 0.1 mm 0 mps 659 mmHg 87%
    05:00 +17°C° 0.1 mm 0 mps 659 mmHg 88%
    06:00 +19°C° 0 mm 0 mps 660 mmHg 79%
    07:00 +23°C° 0 mm 1 mps 660 mmHg 71%
    08:00 +25°C° 0 mm 1 mps 661 mmHg 62%
    09:00 +28°C° 0 mm 1 mps 662 mmHg 53%
    10:00 +31°C° 0 mm 1 mps 662 mmHg 45%
    11:00 +34°C° 0 mm 1 mps 663 mmHg 36%
    12:00 +34°C° 0 mm 1 mps 662 mmHg 35%
    13:00 +34°C° 0 mm 1 mps 661 mmHg 34%
    14:00 +36°C° 0 mm 2 mps 661 mmHg 34%
    15:00 +34°C° 0 mm 2 mps 660 mmHg 38%
    16:00 +32°C° 0 mm 1 mps 660 mmHg 42%
    17:00 +31°C° 0 mm 1 mps 659 mmHg 47%
    18:00 +28°C° 0.1 mm 1 mps 659 mmHg 56%
    19:00 +26°C° 0.1 mm 1 mps 659 mmHg 66%
    20:00 +24°C° 0.1 mm 1 mps 659 mmHg 76%
    21:00 +23°C° 0.1 mm 1 mps 659 mmHg 77%
    22:00 +23°C° 0.1 mm 1 mps 659 mmHg 79%
    23:00 +21°C° 0.1 mm 0 mps 660 mmHg 80%

    10 June, Wednesday

    Time Temperature Precipitation Wind Pressure Humidity
    00:00 +21°C° 0.2 mm 0 mps 659 mmHg 79%
    01:00 +21°C° 0.2 mm 0 mps 659 mmHg 79%
    02:00 +21°C° 0.2 mm 0 mps 659 mmHg 78%
    03:00 +20°C° 0 mm 0 mps 659 mmHg 81%
    04:00 +20°C° 0 mm 0 mps 659 mmHg 83%
    05:00 +19°C° 0 mm 0 mps 659 mmHg 86%
    06:00 +23°C° 0 mm 1 mps 659 mmHg 76%
    07:00 +25°C° 0 mm 1 mps 660 mmHg 67%
    08:00 +27°C° 0 mm 1 mps 661 mmHg 58%
    09:00 +29°C° 0 mm 1 mps 661 mmHg 51%
    10:00 +32°C° 0 mm 1 mps 661 mmHg 44%
    11:00 +35°C° 0 mm 2 mps 661 mmHg 36%
    12:00 +36°C° 0 mm 2 mps 661 mmHg 32%
    13:00 +37°C° 0 mm 2 mps 661 mmHg 29%
    14:00 +38°C° 0 mm 2 mps 660 mmHg 25%
    15:00 +36°C° 0 mm 2 mps 660 mmHg 30%
    16:00 +35°C° 0 mm 2 mps 659 mmHg 36%
    17:00 +32°C° 0 mm 2 mps 659 mmHg 42%
    18:00 +30°C° 0 mm 2 mps 659 mmHg 55%
    19:00 +27°C° 0 mm 2 mps 659 mmHg 69%
    20:00 +24°C° 0 mm 2 mps 658 mmHg 82%
    21:00 +24°C° 0.3 mm 2 mps 659 mmHg 84%
    22:00 +23°C° 0.3 mm 1 mps 659 mmHg 85%
    23:00 +22°C° 0.3 mm 1 mps 660 mmHg 87%

    11 June, Thursday

    Time Temperature Precipitation Wind Pressure Humidity
    00:00 +22°C° 0.1 mm 1 mps 659 mmHg 88%
    01:00 +20°C° 0.1 mm 0 mps 659 mmHg 89%
    02:00 +19°C° 0.1 mm 0 mps 658 mmHg 90%
    03:00 +19°C° 0.1 mm 0 mps 658 mmHg 90%
    04:00 +19°C° 0.1 mm 0 mps 659 mmHg 91%
    05:00 +19°C° 0.1 mm 0 mps 659 mmHg 92%
    06:00 +21°C° 0 mm 0 mps 659 mmHg 83%
    07:00 +25°C° 0 mm 1 mps 660 mmHg 74%
    08:00 +27°C° 0 mm 1 mps 661 mmHg 65%
    09:00 +29°C° 0.1 mm 1 mps 661 mmHg 56%
    10:00 +31°C° 0.1 mm 1 mps 661 mmHg 47%
    11:00 +35°C° 0.1 mm 2 mps 662 mmHg 38%
    12:00 +35°C° 0.1 mm 2 mps 661 mmHg 37%
    13:00 +36°C° 0.1 mm 2 mps 661 mmHg 35%
    14:00 +36°C° 0.1 mm 2 mps 660 mmHg 33%
    15:00 +35°C° 0.4 mm 2 mps 660 mmHg 37%
    16:00 +33°C° 0.4 mm 1 mps 659 mmHg 41%
    17:00 +32°C° 0.4 mm 1 mps 659 mmHg 45%
    18:00 +29°C° 0.2 mm 1 mps 659 mmHg 55%
    19:00 +27°C° 0.2 mm 2 mps 659 mmHg 66%
    20:00 +24°C° 0.2 mm 2 mps 659 mmHg 76%
    21:00 +24°C° 1 mm 1 mps 659 mmHg 77%
    22:00 +23°C° 1 mm 1 mps 659 mmHg 78%
    23:00 +22°C° 1 mm 1 mps 660 mmHg 80%
    Show more